Hourly Data Report for October 30, 2015

All times are specified in Local Standard Time (LST). Add 1 hour to adjust for Daylight Saving Time where and when it is observed.

ST LEONARD CS
NEW BRUNSWICK

47°09'28.050" N
67°49'55.014" W
245.00 m
810I001
71019
WIY

Download Data

Hourly Data (October 2015)
Hourly Data Report for October 30, 2015
Temp Definition
°C
Dew Point Temp Definition
°C
Rel Hum Definition
%
Wind Dir Definition
10's deg

Wind Spd Definition
km/h
Visibility Definition
km
Stn Press Definition
kPa
Hmdx Definition


Wind Chill Definition


Weather Definition


TIME
00:00 4.2 0.5 77 24 13   96.29     LegendNANA
01:00 4.0 0.1 76 22 16   96.26     LegendNANA
02:00 2.9 -0.1 81 23 13   96.21     LegendNANA
03:00 3.1 -0.1 79 22 21   96.18     LegendNANA
04:00 3.7 0.4 79 22 23   96.18     LegendNANA
05:00 4.2 1.1 80 22 20   96.13     LegendNANA
06:00 5.2 1.4 76 24 23   96.17     LegendNANA
07:00 5.0 1.9 80 25 28   96.25     LegendNANA
08:00 5.0 1.0 75 27 32   96.39     LegendNANA
09:00 5.6 -1.1 62 28 33   96.55     LegendNANA
10:00 3.2 -1.1 73 30 39   96.77     LegendNANA
11:00 4.2 -3.4 58 29 33   96.89     LegendNANA
12:00 4.6 -4.7 51 29 40   96.99     LegendNANA
13:00 4.6 -4.0 54 29 45   97.12     LegendNANA
14:00 4.4 -4.2 53 29 39   97.21     LegendNANA
15:00 4.2 -5.1 51 28 39   97.34     LegendNANA
16:00 3.6 -5.2 53 29 33   97.45     LegendNANA
17:00 3.1 -6.3 50 30 37   97.57     LegendNANA
18:00 2.1 -6.2 54 30 32   97.69     LegendNANA
19:00 1.5 -6.6 55 30 34   97.81     LegendNANA
20:00 1.1 -6.8 55 29 31   97.89     LegendNANA
21:00 0.2 -7.1 58 30 18   97.99     LegendNANA
22:00 0.4 -6.5 60 30 22   98.04     LegendNANA
23:00 0.2 -6.4 61 30 26   98.11     LegendNANA

Notes on Data Quality.

Legend

  • E = Estimated
  • M = Missing
  • NA = Not Available
  • ‡ = Partner data that is not subject to review by the National Climate Archives
Date modified: